Regional Weather Roundup
Issued by NWS Cleveland, OH

Home | Current Version | Previous Version | Graphics & Text | Print | Product List | Glossary On
Versions: 1 2 3 4 5 6 7 8 9 10 11 12 13 14 15 16 17 18 19 20 21 22 23 24 25 26 27 28 29 30 31 32 33 34 35 36 37 38 39 40 41 42 43 44 45 46 47 48 49 50
000
ASUS41 KCLE 240712
RWRCLE
OHIO REGIONAL WEATHER ROUNDUP
NATIONAL WEATHER SERVICE WILMINGTON, OH
300 AM EDT SUN SEP 24 2017

NOTE: "FAIR" INDICATES FEW OR NO CLOUDS BELOW 12,000 FEET WITH NO
SIGNIFICANT WEATHER AND/OR OBSTRUCTIONS TO VISIBILITY.

OHZ001>008-015>018-024>027-034-035-043-044-240800-
   NORTHWEST OHIO

CITY           SKY/WX    TMP DP  RH WIND       PRES   REMARKS
DEFIANCE       FAIR      64  60  87 CALM      30.13R
FINDLAY        FAIR      69  58  67 CALM      30.12R
TOLEDO EXPRESS FAIR      65  63  93 CALM      30.12S
TOLEDO EXEC    FAIR      67  60  78 CALM      30.13S
LIMA           FAIR      64  61  90 CALM      30.13R
$$

OHZ009>014-019>023-028>033-038-089-240800-
   NORTHEAST OHIO

CITY           SKY/WX    TMP DP  RH WIND       PRES   REMARKS
CLE-HOPKINS    FAIR      66  59  78 S6        30.14F
CLE-LAKEFRONT  FAIR      71  61  70 CALM      30.11F
CUY CO. ARPT   NOT AVBL
LORAIN-ELYRIA  FAIR      60  54  80 CALM      30.13F
ASHTABULA      FAIR      60  60 100 CALM      30.16R
AKRON-CANTON   FAIR      68  59  73 NE6       30.15S
WOOSTER        FAIR      57  57 100 CALM      30.16R
MANSFIELD      FAIR      68  60  75 SE5       30.15S
YOUNGSTOWN     FAIR      62  61  96 E5        30.15S
$$

OHZ042-051>053-060>062-070>072-077>081-240800-
  SOUTHWEST OHIO

CITY           SKY/WX    TMP DP  RH WIND       PRES   REMARKS
CINC-COVINGTON FAIR      72  62  71 CALM      30.08F
CINC-LUNKEN    FAIR      64  64 100 CALM      30.09S FOG
HAMILTON       FAIR      61  60  97 CALM      30.10R
DAYTON         FAIR      64  58  80 E6        30.12S
WRIGHT-PAT AFB NOT AVBL
DAYTON GENERAL FAIR      64  59  83 NE8       30.10R
WILMINGTON     FAIR      61  59  93 NE5       30.11R
$$

OHZ036-037-039>041-045>050-054>059-063>069-073>076-082>088-240800-
  CENTRAL AND SOUTHEAST OHIO

CITY           SKY/WX    TMP DP  RH WIND       PRES   REMARKS
COLUMBUS       FAIR      69  60  73 N3        30.11R
OSU AIRPORT    FAIR      65  61  87 CALM      30.12S
BOLTON FIELD   FAIR      62  60  93 NW3       30.13S
RICKENBACK AFB FAIR      65  60  86 N3        30.11S
NEWARK         FAIR      59  57  93 CALM      30.12S
MARION         FAIR      65  58  78 CALM      30.14R
LANCASTER      FOG       55  55 100 CALM      30.12S VSB 3/4
ZANESVILLE     FAIR      61  58  90 CALM      30.13R
NEW PHILLY     FAIR      61  60  97 CALM      30.15R
$$



USA.gov is the U.S. government's official web portal to all federal, state and local government web resources and services.